Flag for Sweden Weather past 2 weeks in Borås, Sweden

Now
55 °F

Scattered clouds.


Feels Like: 53 °F
Forecast: 49 / 60 °F
Wind: 8 mph from South

Location: Gothenburg / Landvetter

Current Time: Aug 22, 2014 at 10:22:42 AM

Latest Report: Aug 22, 2014 at 9:50 AM


Visibility: N/A

Pressure: 29.74 "Hg

Humidity: 77%

Dew point: 48 °F

Location of BoråsLocation

Historic Weather in Borås — Graph

°F

Borås temperature yesterday

Maximum temperature yesterday: 57 °F (at 12:20 PM)
Minimum temperature yesterday: 48 °F (at 10:50 PM)
Average temperature yesterday: 54 °F

Past Weeks' High & Low Weather Summary

 TemperatureHumidityPressure
High72 °F (Aug 7, 4:20 PM)100% (Aug 8, 3:20 AM)29.98 "Hg (Aug 8, 3:20 AM)
Low48 °F (Aug 21, 10:50 PM)50% (Aug 7, 4:50 PM)29.27 "Hg (Aug 18, 7:50 AM)
Average58 °F84%29.64 "Hg
* Reported Aug 7 9:20 AM — Aug 22 9:20 AM, Borås, Weather by CustomWeather, © 2014

Note: Actual official high and low records may vary slightly from our data, if they occured in-between our weather recording intervals... More about our weather records

Advertising

Borås weather history for previous 24 hours

 ConditionsComfort  
Time TempWeatherWind HumidityBarometerVisibility
9:20 AM
Aug 22
55 °FSunny.8 mph77%29.74 "Hg10 mi
8:50 AM54 °FPassing clouds.8 mph82%29.74 "HgN/A
8:20 AM54 °FPassing clouds.8 mph82%29.74 "HgN/A
7:50 AM52 °FPassing clouds.7 mph88%29.74 "HgN/A
7:20 AM50 °FScattered clouds.5 mph94%29.74 "HgN/A
6:50 AM50 °FScattered showers. Broken clouds.6 mph94%29.74 "HgN/A
6:20 AM50 °FScattered showers. Passing clouds.9 mph94%29.74 "HgN/A
5:50 AM50 °FOvercast.9 mph94%29.74 "HgN/A
5:20 AM50 °FLight rain. Passing clouds.12 mph94%29.74 "Hg6 mi
4:20 AM50 °FOvercast.8 mph94%29.74 "HgN/A
3:50 AM50 °FPassing clouds.6 mph94%29.74 "HgN/A
3:20 AM50 °FHeavy rain. Partly cloudy.8 mph94%29.77 "Hg3 mi
2:50 AM48 °FPartly cloudy.6 mph94%29.74 "HgN/A
2:20 AM50 °FPassing clouds.7 mph88%29.77 "HgN/A
1:50 AM50 °FPassing clouds.6 mph88%29.77 "HgN/A
1:20 AM48 °FPassing clouds.5 mph87%29.77 "HgN/A
12:50 AM48 °FClear.5 mph87%29.77 "Hg10 mi
12:20 AM48 °FClear.6 mph87%29.77 "Hg10 mi
11:50 PM
Aug 21
48 °FClear.7 mph87%29.77 "Hg10 mi
11:20 PM48 °FClear.6 mph87%29.77 "Hg10 mi
10:50 PM48 °FClear.8 mph87%29.77 "Hg10 mi
10:20 PM50 °FClear.8 mph82%29.77 "Hg10 mi
9:50 PM52 °FClear.9 mph77%29.77 "Hg10 mi
9:20 PM52 °FSunny.7 mph77%29.77 "Hg10 mi
8:50 PM52 °FSunny.7 mph77%29.77 "Hg10 mi
8:20 PM54 °FScattered clouds.7 mph72%29.77 "HgN/A
7:50 PM55 °FPassing clouds.9 mph67%29.77 "HgN/A
7:20 PM55 °FPassing clouds.10 mph72%29.77 "HgN/A
6:50 PM55 °FScattered clouds.12 mph72%29.77 "HgN/A
6:20 PM57 °FScattered clouds.14 mph67%29.77 "HgN/A
5:50 PM55 °FScattered clouds.13 mph72%29.74 "HgN/A
5:20 PM55 °FBroken clouds.15 mph88%29.74 "HgN/A
4:50 PM55 °FPartly sunny.12 mph88%29.74 "HgN/A
4:20 PM54 °FLight rain. Broken clouds.14 mph82%29.74 "HgN/A
3:50 PM54 °FRain showers. Partly sunny.16 mph82%29.74 "HgN/A
3:20 PM54 °FLight rain. Partly sunny.15 mph82%29.74 "HgN/A
2:50 PM54 °FPartly sunny.15 mph88%29.74 "HgN/A
2:20 PM55 °FSprinkles. Partly sunny.18 mph72%29.74 "HgN/A
1:50 PM57 °FPartly sunny.17 mph67%29.74 "HgN/A
1:20 PM57 °FSprinkles. Partly sunny.16 mph72%29.71 "HgN/A
12:50 PM57 °FScattered showers. Partly sunny.22 mph72%29.71 "HgN/A
12:20 PM57 °FPartly sunny.18 mph72%29.71 "HgN/A
11:50 AM55 °FSprinkles. Mostly cloudy.20 mph77%29.71 "HgN/A
11:20 AM55 °FSprinkles. Broken clouds.17 mph77%29.71 "HgN/A
10:50 AM54 °FBroken clouds.17 mph88%29.68 "HgN/A
10:20 AM54 °FSprinkles. Partly sunny.16 mph88%29.68 "HgN/A
Weather by CustomWeather, © 2014

See weather overviewHow to use our weather pages